User: anonymous   Login
Location: La Coru��a
(43.3623°N, 8.4115°W)
Time: 23:56:03
(UTC+02:00)
Language:

Falcon 9 debris - Orbit

View from above orbital plane
View from above orbital plane
View from above satellite
View from above satellite

Ground track
Ground track

The orbit data is extracted from the following two-line orbital elements,

1 44298U 19029BR  22278.48583211  .00074053  00000-0  71158-3 0  9995
2 44298  52.9942  37.3107 0003974 321.0366  39.0362 15.65939011191874
Epoch (UTC): 05 October 2022 11:39:35
Eccentricity: 0.0003974
inclination: 52.9942°
perigee height: 368 km
apogee height: 373 km
right ascension of ascending node: 37.3107°
argument of perigee: 321.0366°
revolutions per day: 15.65939011
mean anomaly at epoch: 39.0362°
orbit number at epoch: 19187

The dashed part of the orbit path shows where the satellite is in the earth's shadow,  

DLR